STARLINK-35486, 66253

Orbit data source: Space-Track

STARLINK-35486, 66253 is a payload satellite owned by SpaceX/Seattle (US) in LEO that was launched on Wed, 29 Oct 2025 UTC via an FALCON 9 launch vehicle from the Air Force Eastern Test Range (AFETR). Payload-class satellites include a variety of spacecraft equipped with specific instruments for various scientific and technological missions. These include communications satellites like Starlink; space stations such as the ISS; scientific satellites like the Hubble; Earth observation satellites from companies like Planet Labs, Umbra, and HawkEye 360; GPS; miniature CubeSats for education and research; and military/defense satellites.

Loading next visibility...
Identifier
66253, 2025-245V
Orbit
LEO
Country
Flag of USUS
Related business
Manufacturer
SpaceX/Seattle
Mission
Operational Commercial Communications
Bus & Motor
STARLINK V2MO, Unknown motor
Mass
575 kg wet, ~530 kg dry
Launch date (UTC)
2025-10-29 (8 months ago)
Launch vehicle
FALCON 9
Launch site
Air Force Eastern Test Range (AFETR)
Object type
Payload
Rocket body
Debris
Shape & HBR
Box + 2 Pan, 17.7 m
Radar Cross Section
36.964 m², Large (>1 m²)

Expand to show TLE details & history
Last TLE update: 11 hours ago

TLE from 11 hours ago
0 STARLINK-35486
1 66253U 25245V   26171.36959148  .00011614  00000-0  38521-3 0  9997
2 66253  53.1581 166.5022 0001099  81.7991 278.3135 15.31717749 36770
Epoch: 2026-06-20T08:52Z
TLE epoch observation values (Epoch: 2026-06-20T08:52:12.703Z)
Latitude
-0.00004°
Longitude
124.86404°
Altitude
471.478 km
Speed
7.632 km/s
True Right ascension
11h 06m 00s
True Declination
0° 00' 00"
Sunlit
Object was in daylight at epoch
Visualization orbit readout
Latitude
Unknown
Longitude
Unknown
Altitude
Unknown
Speed
Unknown
Apparent Right ascension
Unknown
Apparent Declination
Unknown
Sunlit
N/A
Visualization observer readout
Local Sidereal Time
07:17:23
Azimuth
Unknown
Elevation
Unknown
Doppler factor
Unknown
Orbital elements
Apogee altitude
471.697 km
Perigee altitude
470.191 km
Semi-major axis
6,849.081 km
Eccentricity
0.00011
Inclination
53.1581°
RAAN
166.5022°
Arg. of periapsis
81.7991°
True anomaly
278.30104°
Mean anomaly
278.3135°
Eccentric anomaly
278.30727°
Mean motion
3.82908 °/min
Orbital period
94.02 mins
BSTAR
0.00038521
Loading maneuver chart data...
Computing Atmospheric mass density...
Loading historical data...
Loading historical data...
Loading historical data...
Loading historical data...
Loading historical data...
Loading historical data...
Loading historical data...

Documentation

Showing up to 5 results
|